Location: La Pernelle
(49.6188°N, 1.2999°W)
Time: 08:56:16
(UTC+00:00)

CZ-4B DEB - Pass Details

Date: 12 June 2021
Orbit: 404 x 407 km, 97.3° (Epoch: 03 August)

Event Time Altitude Azimuth Distance (km) Brightness Sun altitude
Exits shadow 22:08:53 20° 182° (S) 1,003 5.6 -12.7°
Maximum altitude 22:10:52 61° 258° (WSW) 466 4.5 -12.9°
Drops below altitude 10° 22:13:59 10° 341° (NNW) 1,476 8.5 -13.1°
Sets 22:16:00 0° 345° (NNW) 2,342 9.9 -13.2°
